Location: Myra
(43.4160°N, 88.0960°W)
Time: 02:22:09
(UTC-06:00)

Daily predictions for brighter satellites

Satellite Brightness Start Highest point End
(mag) Time Altitude Azimuth Time Altitude Azimuth Time Altitude Azimuth
NOSS 3-1 (A) 4.4 04:01:08 54° N 04:02:24 60° NE 04:10:35 10° SE
ATLAS 2AS CENTAUR R/B 4.4 04:06:19 21° N 04:10:09 30° NNE 04:16:52 10° E
CZ-3 Stage 3 4.2 04:12:38 15° SSE 04:12:38 15° SSE 04:15:41 10° SE
Cosmos 1603 4.3 04:17:39 54° ENE 04:17:39 54° ENE 04:23:01 10° SE
COSMO-SKYMED 1 3.9 04:29:18 10° SE 04:33:17 38° ENE 04:33:54 36° NE
USA 234 4.4 04:28:09 10° ENE 04:33:42 31° NNE 04:35:31 27° NNW
Cosmos 2058 4.4 04:38:10 32° SE 04:38:10 32° SE 04:40:42 10° SSE
Cosmos 1777 Rocket 4.2 04:37:20 61° SE 04:37:53 65° ESE 04:43:04 10° NNE
NOSS 3-1 (C) 3.9 04:39:11 58° WNW 04:40:48 74° WSW 04:49:08 10° SSE
Cosmos 2227 4.1 04:49:56 58° SSW 04:51:06 89° ESE 04:56:46 10° NNE
Cosmos 292 Rocket 4.2 04:49:58 44° NNE 04:51:13 59° ENE 04:55:57 10° SSE
Cosmos 2233 Rocket 3.9 04:53:16 61° W 04:53:40 63° W 04:59:57 10° N
ADEOS II 4.3 04:48:59 10° N 04:49:28 12° N 04:49:28 12° N
Cosmos 1356 Rocket 4.4 04:55:01 25° NNE 04:57:02 46° ENE 05:01:04 10° SSE
Cosmos 2346 Rocket 4.3 04:57:06 59° WNW 04:57:37 61° W 05:03:33 10° S
Tiangong 2 3.2 04:59:08 26° ESE 04:59:08 26° ESE 05:00:54 10° E
Cosmos 2297 Rocket 4.0 05:04:10 16° NNW 05:04:10 16° NNW 05:05:53 10° N
Cosmos 1626 3.5 04:59:38 22° NNE 05:01:35 39° ENE 05:05:06 10° SSE
SeaSat 1 2.7 05:04:42 10° NNE 05:09:00 49° NW 05:09:00 49° NW
Ariane Rocket 3.8 05:07:12 10° NNE 05:12:11 51° E 05:17:08 10° S
Meteor 1-28 Rocket 3.4 05:11:40 10° SSE 05:15:22 67° ENE 05:17:07 29° N
Cosmos 2227 Rocket 4.3 05:17:51 12° NNW 05:17:51 12° NNW 05:18:39 10° N
Meteor 2-12 Rocket 4.4 05:10:04 10° S 05:16:13 90° ENE 05:22:26 10° N
Cosmos 923 Rocket 3.9 05:15:14 35° NNW 05:17:28 73° WSW 05:22:41 10° S
SL-8 R/B 4.0 05:17:14 46° SW 05:17:39 48° SW 05:22:14 10° SE
Cosmos 2221 2.3 05:13:22 10° S 05:17:41 79° W 05:22:01 10° N
DELTA 2 R/B (1) 4.0 05:18:45 34° SW 05:20:54 55° S 05:26:20 10° E
SKYMED 2 3.4 05:17:00 10° S 05:21:18 65° WSW 05:22:32 44° NW
Cosmos 2034 Rocket 4.1 05:17:53 10° S 05:24:05 78° E 05:30:23 10° N
Cosmos 1680 Rocket 3.4 05:20:35 21° NNW 05:24:13 82° WSW 05:29:33 10° SSE
CZ-4 R/B 3.8 05:21:40 10° NE 05:25:07 26° E 05:28:35 10° SSE
Cosmos 1703 3.1 05:25:13 37° NNW 05:26:42 75° W 05:30:37 10° S
Meteor 1-16 Rocket 4.4 05:27:37 28° WSW 05:29:48 41° WNW 05:34:49 10° N
Cosmos 1666 Rocket 3.6 05:28:22 10° N 05:32:52 83° E 05:37:20 10° S
Cosmos 2344 4.1 05:25:45 10° SSW 05:33:17 63° ESE 05:41:42 10° NE
IDEFIX/ARIANE 42P 4.2 05:28:57 10° NNE 05:33:48 36° E 05:38:37 10° SSE
Cosmos 1513 Rocket 4.4 05:27:31 10° S 05:33:49 80° W 05:40:16 10° N
Cosmos 1943 3.1 05:30:43 17° NNW 05:35:18 79° WSW 05:40:58 10° SSE
Cosmos 1184 Rocket 2.8 05:43:30 38° NW 05:44:27 55° W 05:47:41 10° S
CSL-04 Debris 4.4 05:42:06 10° NNE 05:47:37 77° ESE 05:53:03 10° S
ATLAS CENTAUR R/B 4.3 05:44:31 12° NNW 05:47:53 24° NNE 05:55:38 10° E
Gbstr 26 Del rocket 3.9 05:43:30 12° SW 05:48:28 79° SE 05:55:10 10° ENE
Cosmos 1464 Rocket 4.2 05:45:34 10° SSW 05:51:39 49° WNW 05:57:43 10° N
Cosmos 2263 Rocket 2.2 05:48:33 10° SSW 05:54:14 89° WNW 05:59:58 10° NNE
Coronas F rocket 1.2 05:56:55 45° WSW 05:56:55 45° WSW 05:59:08 10° S
Cosmos 2112 Rocket 4.3 05:55:43 12° NNW 06:00:30 46° WSW 06:05:35 10° S
Cosmos 1726 3.9 05:57:33 10° SSE 06:00:55 34° E 06:04:19 10° NNE
Cosmos 389 Rocket 2.5 05:57:22 10° SSW 06:00:59 60° WNW 06:04:38 10° N
ATLAS 2AS CENTAUR R/B 3.1 05:54:07 10° NW 06:02:17 89° NE 06:09:50 10° SE
Cosmos 1470 Rocket 3.7 06:01:23 10° N 06:05:45 77° E 06:10:05 10° SSE
COSMOS 2406 4.4 06:01:30 10° NNW 06:07:00 43° ENE 06:12:28 10° SE
CSL-04 Rocket 3.6 06:03:37 10° N 06:08:50 61° WNW 06:14:00 10° SSW
COSMO-SKYMED 1 3.9 06:06:22 10° SW 06:09:35 20° W 06:11:07 17° WNW
CZ-2C R/B 2.4 06:06:03 10° NNE 06:10:39 77° ESE 06:15:13 10° S
Cosmos 2298 Rocket 4.1 06:06:04 10° SSW 06:11:22 88° ESE 06:16:42 10° NNE
Cosmos 1908 3.4 06:09:58 10° SSW 06:13:39 45° WNW 06:17:22 10° N
USA 234 3.6 06:09:33 10° ESE 06:15:59 62° NNE 06:22:26 10° NW
APEX 3.1 06:18:43 10° SW 06:22:08 42° WNW 06:25:02 10° NNE
Sich 1 3.9 06:21:21 10° NNW 06:25:03 28° W 06:28:43 10° SSW
Cosmos 1300 3.0 06:21:50 10° S 06:25:38 71° E 06:29:27 10° NNE
Tiangong 2 1.1 06:31:13 10° W 06:34:21 79° S 06:37:29 10° E
Cosmos 2228 Rocket 3.5 06:30:17 10° SSW 06:34:27 41° WNW 06:38:38 10° N
Cosmos 1633 Rocket 4.1 06:31:04 10° NNW 06:34:39 25° W 06:38:12 10° SW
Cosmos 1655 Rocket 4.3 06:29:18 10° N 06:35:35 75° E 06:41:48 10° SSE
PSLV R/B 4.2 06:32:39 10° W 06:35:52 40° SSW 06:39:03 10° SE
Cosmos 1626 3.9 06:34:43 10° NW 06:36:35 13° W 06:38:28 10° WSW
SMAP 3.0 06:32:53 10° N 06:37:32 67° WNW 06:42:08 10° SSW
Cosmos 1328 Rocket 4.0 06:33:53 10° SSW 06:37:58 39° WNW 06:42:05 10° N
SL-12 R/B (Aux Motor) 4.4 06:34:48 10° W 06:38:41 48° NNW 06:40:45 10° ENE
Cosmos 1627 Rocket 4.5 06:33:16 10° N 06:39:25 79° W 06:45:35 10° S
Iridium 4 Rocket 3.1 06:35:46 10° N 06:40:10 78° W 06:44:55 10° S
Cosmos 1151 Rocket 2.9 06:36:01 10° SSW 06:40:17 74° W 06:44:34 10° N
SeaSat 1 4.4 06:45:32 10° NNW 06:46:00 10° NW 06:46:26 10° NW
Helios 1B rocket 2.5 06:42:36 10° S 06:46:39 59° WSW 06:50:43 10° NNW
Cosmos 1634 Rocket 4.1 06:40:55 10° SSW 06:47:08 63° W 06:53:21 10° N
SPOT 3 Rocket 3.6 06:42:17 10° N 06:47:31 73° WNW 06:52:42 10° SSW
Cosmos 1515 Rocket 4.0 06:46:16 10° SW 06:50:25 39° WNW 06:54:38 10° N
Ariane Rocket 4.1 06:46:57 10° NNW 06:50:47 22° WNW 06:54:37 10° WSW
Meteor 2-3 Rocket 4.1 06:45:13 10° N 06:51:03 77° ENE 06:56:50 10° SSE
